Vorticity
nan nan nan nan nan nan nan nan nan nan nan nan nan nan nan nan nan nan nan nan nan nan nan nan nan nan nan nan nan nan nan nan nan nan nan nan nan nan nan nan nan nan nan nan nan
nan 6 6 6 6 6 7 7 6 6 7 7 7 8 7 11 13 7 20 21 14 5 2 6 6 6 5 6 7 1 4 0 15 12 7 4 5 9 6 4 5 10 12 10 nan
nan 7 7 6 7 7 7 7 6 6 7 7 7 8 8 14 18 21 17 14 9 3 1 6 4 6 3 6 5 6 6 1 -3 9 11 10 6 7 7 8 8 10 6 5 nan
nan 7 7 7 7 7 7 8 7 6 8 8 8 8 15 15 10 20 11 10 9 2 7 7 6 5 4 6 4 7 -1 11 6 11 8 11 7 5 7 11 10 11 8 6 nan
nan 7 7 7 7 8 8 8 7 7 8 8 9 12 17 9 8 10 1 9 9 8 10 5 8 5 5 3 5 7 5 6 11 7 13 6 7 6 8 8 13 12 9 6 nan
nan 7 7 7 7 7 8 8 7 8 10 11 11 14 11 4 18 8 4 5 6 11 6 5 6 5 6 3 6 6 5 6 13 14 13 4 6 2 10 8 10 8 8 7 nan
nan 7 7 6 6 8 9 7 7 12 16 19 18 10 7 11 11 4 9 2 8 7 7 9 5 4 3 7 4 4 9 8 14 12 11 3 7 8 8 7 8 6 8 8 nan
nan 7 7 7 7 8 8 7 11 18 22 24 16 4 2 21 13 4 5 4 7 8 12 10 9 3 9 9 9 11 5 4 16 4 8 9 8 11 6 6 5 6 8 8 nan
nan 6 7 7 8 9 9 9 22 22 18 15 5 4 7 11 15 16 11 9 9 10 11 7 14 14 7 8 14 11 7 9 9 6 1 10 10 14 6 6 5 8 8 8 nan
nan 7 7 8 8 7 16 29 24 18 8 -2 5 11 22 8 13 11 14 13 10 9 10 10 10 11 9 7 7 7 9 11 2 8 -0 6 6 16 7 6 6 8 7 9 nan
nan 8 7 8 8 12 25 28 17 11 3 -3 2 2 3 5 5 7 13 12 7 6 7 12 6 10 6 3 3 3 3 6 12 14 3 4 2 5 8 8 8 7 7 7 nan
nan 8 7 8 8 21 20 6 7 7 14 14 4 3 -7 5 3 7 7 8 7 6 6 5 9 7 8 7 4 4 3 8 11 15 6 4 8 4 4 7 8 7 8 7 nan
nan 6 7 8 23 25 11 14 -0 12 17 19 26 17 16 12 4 9 3 5 6 8 5 -0 9 11 7 8 7 6 6 5 12 9 -1 6 9 8 6 7 6 8 9 10 nan
nan 6 6 20 20 13 17 7 5 10 15 27 24 25 22 13 25 16 6 7 4 10 8 7 9 11 7 7 7 8 5 5 7 -3 9 9 11 13 4 9 9 6 9 10 nan
nan 8 11 15 17 5 2 4 14 12 8 20 15 16 18 1 11 29 18 6 5 5 8 8 11 9 11 7 6 6 7 5 8 8 10 -1 2 8 18 9 8 9 10 9 nan
nan 6 11 23 15 6 4 10 13 11 16 3 7 7 7 3 -7 16 18 10 10 7 7 10 9 8 7 12 8 6 7 13 8 5 10 8 9 6 9 9 11 12 12 10 nan
nan 8 16 19 6 5 16 18 10 6 7 18 8 9 6 7 8 5 14 14 7 9 9 12 9 6 14 10 8 9 4 10 12 9 9 14 5 8 6 11 6 9 14 13 nan
nan 22 26 14 11 4 10 11 7 12 -4 2 17 6 6 3 10 4 7 12 8 1 7 14 13 10 10 10 12 10 2 4 5 3 10 10 8 7 6 1 7 6 9 19 nan
nan 24 14 16 15 12 13 4 7 -7 12 7 1 12 10 5 9 7 8 10 11 5 2 8 7 16 10 9 10 8 9 2 8 2 5 15 7 4 12 9 1 4 7 16 nan
nan 16 22 16 12 10 11 8 0 -3 -1 10 8 8 8 10 1 10 10 8 12 9 3 -0 14 16 12 10 9 11 10 10 7 10 9 5 8 17 10 6 7 8 11 13 nan
nan 12 22 13 6 10 9 11 4 2 2 7 13 9 7 7 5 5 4 10 17 11 9 3 8 16 19 10 5 9 8 6 7 8 8 9 14 14 11 15 13 8 9 10 nan
nan 12 2 8 7 8 8 4 4 12 18 8 3 10 11 9 9 10 14 9 15 15 11 7 4 9 12 15 10 6 10 3 8 9 0 7 14 10 11 5 3 8 16 13 nan
nan 10 8 12 9 7 7 13 11 13 12 15 13 8 5 9 12 13 4 6 13 16 23 13 4 7 12 13 17 12 8 8 1 9 9 6 3 3 9 13 11 6 6 6 nan
nan 12 20 9 3 9 11 14 18 18 12 14 15 15 13 8 9 11 8 12 1 -1 2 17 20 5 6 5 14 17 10 8 7 4 7 9 6 9 4 4 9 9 6 10 nan
nan 5 8 10 4 3 9 15 15 6 18 20 17 14 14 13 10 9 10 9 6 7 -1 9 12 15 2 5 12 12 11 9 11 6 1 8 7 7 8 3 7 4 2 6 nan
nan 7 10 10 6 10 14 10 4 10 12 5 25 29 17 26 21 15 12 7 12 10 12 7 8 12 15 14 4 8 18 14 6 4 10 7 8 11 4 4 9 8 4 1 nan
nan nan nan nan nan nan nan nan nan nan nan nan nan nan nan nan nan nan nan nan nan nan nan nan nan nan nan nan nan nan nan nan nan nan nan nan nan nan nan nan nan nan nan nan nan
CAPE
2 1 1 1 1 0 0 0 0 0 0 0 0 1 0 0 0 0 0 0 0 1607 1851 15 71 7 28 32 102 155 102 193 55 175 9 0 26 19 202 280 172 321 643 804 948
3 2 1 1 1 0 0 0 0 0 0 1 1 1 0 0 0 0 0 27 863 1155 0 0 0 0 15 0 63 27 33 126 51 126 47 6 16 21 87 163 328 377 662 742 890
5 4 3 2 1 0 0 0 0 0 0 1 0 1 0 0 0 0 0 132 1016 583 0 0 0 0 0 0 0 9 83 58 52 29 143 38 46 24 97 92 279 441 610 642 797
5 4 3 3 2 1 0 0 1 0 1 1 0 0 0 0 0 0 0 0 848 0 0 0 0 0 0 0 0 0 8 6 42 19 67 81 122 30 15 101 128 421 505 598 798
5 3 1 1 0 0 0 2 4 2 1 0 0 0 0 0 0 0 3 55 0 0 0 0 0 0 0 0 0 0 8 3 0 5 30 132 124 67 15 15 120 446 516 599 746
3 2 4 2 0 0 1 5 5 1 0 1 1 0 0 0 0 0 0 0 0 0 0 0 0 0 0 0 0 1 0 1 1 4 12 128 123 117 13 27 240 609 600 614 639
3 4 4 2 0 0 0 3 0 0 1 1 1 0 0 0 0 0 0 0 0 0 0 0 0 0 0 0 0 0 0 3 0 1 9 45 87 91 8 217 377 577 633 485 531
2 3 4 1 0 0 1 1 0 0 1 1 1 0 0 0 0 0 0 0 0 0 0 0 0 0 0 0 0 0 0 67 7 0 36 116 151 70 172 222 366 441 623 492 513
3 6 4 1 0 0 0 0 0 0 0 0 0 0 0 0 0 0 0 0 0 0 0 0 0 0 0 0 0 0 4 17 4 17 159 99 10 137 239 178 194 396 401 530 556
6 5 5 2 0 0 0 0 0 0 0 0 0 0 0 0 0 0 0 0 0 0 0 0 0 0 0 0 0 8 22 78 135 21 188 104 285 303 391 252 117 190 200 335 419
7 7 5 1 0 0 0 0 0 0 0 0 0 0 0 0 0 0 0 0 0 0 0 0 0 0 0 0 0 19 66 12 70 31 94 158 183 258 506 474 266 255 148 172 227
5 5 0 0 0 0 0 0 0 0 0 0 0 0 0 0 0 0 0 0 0 0 0 0 0 0 0 0 0 0 36 65 38 40 63 150 200 296 597 508 537 458 325 223 179
4 6 1 0 0 0 0 0 0 0 0 0 0 0 0 0 0 0 0 0 0 0 0 0 0 0 0 0 0 0 11 47 74 146 94 129 148 194 220 532 549 438 544 411 208
7 5 1 0 0 0 0 0 0 0 0 0 0 0 0 0 0 0 0 0 0 0 0 0 0 0 0 0 0 0 0 14 63 57 147 29 160 185 121 194 439 671 553 607 341
3 1 0 0 0 0 0 0 0 0 0 0 0 0 0 0 0 0 0 0 0 0 0 0 0 0 0 0 0 0 0 14 37 142 202 77 106 58 75 133 174 434 666 638 446
1 0 0 0 0 0 0 0 0 0 0 0 0 0 0 0 0 0 0 0 0 0 0 0 0 0 0 0 0 0 0 26 37 73 111 160 125 193 55 126 167 166 433 753 697
0 0 0 0 0 0 0 0 0 0 0 0 0 0 0 0 0 0 0 0 0 0 0 0 0 0 0 0 0 0 0 22 62 72 49 108 140 216 125 89 75 67 115 472 816
0 0 0 0 0 0 0 0 0 0 0 0 0 0 0 0 0 0 0 0 0 0 0 0 0 0 0 0 0 0 0 1 30 52 51 53 84 84 109 53 65 43 32 90 540
0 0 0 0 0 0 0 0 0 0 0 0 0 0 0 0 0 0 0 0 0 0 0 0 0 0 0 0 0 0 0 0 23 71 90 73 62 41 53 108 78 40 20 24 362
0 0 0 0 0 0 0 0 0 0 0 0 0 0 0 0 0 0 0 0 0 0 0 0 0 0 0 0 0 0 0 0 15 132 137 80 84 67 67 49 27 29 6 10 130
0 0 0 0 0 0 0 0 0 0 0 0 0 0 0 0 0 0 0 0 0 0 0 0 0 0 0 0 0 0 0 0 2 45 80 100 102 80 116 56 23 15 11 18 61
0 0 0 0 0 0 0 0 0 0 0 0 0 0 0 0 0 0 0 0 0 0 0 0 0 0 0 0 0 0 0 0 24 28 29 119 88 35 21 21 17 27 25 50 44
1 0 0 0 0 0 0 0 0 0 0 0 0 0 0 0 0 0 0 0 0 0 0 0 0 0 0 0 0 0 0 0 0 11 164 99 16 19 33 55 61 40 6 32 67
33 13 12 15 6 0 0 0 0 0 0 0 0 0 0 0 0 0 0 0 0 0 0 0 2 0 0 0 0 0 0 0 0 0 11 14 68 91 69 31 10 8 18 0 3
57 33 42 57 72 11 7 58 14 11 12 6 3 0 0 0 0 0 0 0 0 2 0 0 0 0 0 3 7 0 0 0 0 0 3 4 53 62 96 94 33 7 5 0 0
89 88 76 52 95 11 5 22 0 0 2 0 3 1 2 2 0 0 0 0 0 0 0 0 0 0 2 2 1 6 10 0 0 0 0 0 0 23 36 163 57 0 0 0 3
137 122 113 25 99 123 15 3 4 10 15 0 0 0 29 12 0 2 27 3 0 23 10 0 14 8 5 24 77 77 1 2 7 8 0 0 0 0 9 53 57 16 7 0 1